Weather History for KAVL - August, 2013

Change the Weather History Date:

Friday, August 30, 2013

  Actual Average Record
Temperature  
Mean Temperature 75 °F 71 °F  
Max Temperature 80 °F 81 °F 96 °F (1932)
Min Temperature 70 °F 61 °F 43 °F (1968)
Degree Days  
Heating Degree Days 0 0  
Month to date heating degree days 5 0  
Since 1 June heating degree days 5 14  
Since 1 July heating degree days 5 0  
Cooling Degree Days 10 6  
Month to date cooling degree days 203 242  
Year to date cooling degree days 726 752  
Since 1 June cooling degree days 675 694  
Growing Degree Days 25 (Base 50)    
Moisture  
Dew Point 69 °F    
Average Humidity 84    
Maximum Humidity 97    
Minimum Humidity 71    
Precipitation  
Precipitation 0.01 in 0.14 in 2.56 in (1910)
Month to date precipitation 6.91 4.26  
Year to date precipitation 58.69 31.47  
Snow  
Snow 0.00 in 0.00 in 0.00 in ()
Month to date snowfall 0.0 0.0  
Since 1 June snowfall 0.0 0.0  
Since 1 July snowfall 0.0 0.0  
Snow Depth 0.00 in    
Sea Level Pressure  
Sea Level Pressure 30.05 in    
Wind  
Wind Speed 4 mph (SSE)    
Max Wind Speed 10 mph    
Max Gust Speed 15 mph    
Visibility 9 miles    
Events Rain , Thunderstorm    
T = Trace of Precipitation, MM = Missing Value Source: NWS Daily Summary

Daily Weather History Graph

Daily Weather History Graph

Search for Another Location

Airport or City:

Trip Planner

Search our weather history database for the weather conditions in past years. The results will help you decide how hot, cold, wet, or windy it might be!

Date:

Astronomy

Aug. 30, 2013 Rise Set
Actual Time 7:01 AM EDT 7:59 PM EDT
Civil Twilight 6:35 AM EDT 8:25 PM EDT
Nautical Twilight 6:04 AM EDT 8:56 PM EDT
Astronomical Twilight 5:32 AM EDT 9:28 PM EDT
Moon 1:45 AM EDT (8/30) 4:08 PM EDT (8/30)
Length of Visible Light 13h 50m
Length of Day
12h 58m
Waning Crescent, 29% of the Moon is Illuminated
Aug 30
Waning Crescent
Sep 5
New
Sep 12
First Quarter
Sep 19
Full
Sep 26
Last Quarter

Hourly Weather History & Observations

Time (EDT) Temp. Dew Point Humidity Pressure Visibility Wind Dir Wind Speed Gust Speed Precip Events Conditions
12:17 AM 71.6 °F 68.0 °F 88% 30.09 in 10.0 mi NW 3.5 mph - N/A Thunderstorm Mostly Cloudy
12:47 AM 71.6 °F 69.8 °F 94% 30.09 in 10.0 mi South 3.5 mph - N/A   Mostly Cloudy
12:54 AM 71.1 °F 69.1 °F 93% 30.00 in 9.0 mi Calm Calm - N/A   Mostly Cloudy
1:11 AM 71.6 °F 69.8 °F 94% 30.10 in 10.0 mi Calm Calm - 0.00 in   Overcast
1:54 AM 71.1 °F 69.1 °F 93% 30.01 in 10.0 mi South 4.6 mph - 0.00 in Rain Light Rain
2:03 AM 71.6 °F 69.8 °F 94% 30.09 in 10.0 mi SSW 4.6 mph - 0.00 in Rain Light Rain
2:54 AM 71.1 °F 69.1 °F 93% 30.01 in 10.0 mi Calm Calm - 0.00 in   Overcast
3:54 AM 71.1 °F 69.1 °F 93% 30.00 in 9.0 mi SSW 3.5 mph - 0.00 in   Overcast
4:28 AM 71.6 °F 69.8 °F 94% 30.09 in 10.0 mi South 3.5 mph - N/A   Overcast
4:50 AM 71.6 °F 68.0 °F 88% 30.09 in 10.0 mi SSW 3.5 mph - N/A   Overcast
4:54 AM 71.1 °F 68.0 °F 90% 30.00 in 10.0 mi SSW 4.6 mph - N/A   Overcast
5:54 AM 70.0 °F 68.0 °F 93% 30.01 in 8.0 mi Calm Calm - N/A   Overcast
6:13 AM 69.8 °F 68.0 °F 94% 30.10 in 9.0 mi Calm Calm - N/A   Overcast
6:40 AM 69.8 °F 68.0 °F 94% 30.11 in 9.0 mi Calm Calm - 0.00 in Rain Light Rain
6:54 AM 70.0 °F 68.0 °F 93% 30.03 in 9.0 mi Calm Calm - 0.00 in   Overcast
7:29 AM 69.8 °F 68.0 °F 94% 30.12 in 6.0 mi Calm Calm - N/A   Overcast
7:54 AM 70.0 °F 68.0 °F 93% 30.04 in 6.0 mi Calm Calm - N/A   Overcast
8:30 AM 71.6 °F 68.0 °F 88% 30.13 in 4.0 mi Calm Calm - N/A   Overcast
8:52 AM 71.6 °F 68.0 °F 88% 30.13 in 4.0 mi WSW 3.5 mph - N/A   Overcast
8:54 AM 71.1 °F 68.0 °F 90% 30.05 in 4.0 mi Calm Calm - N/A   Overcast
9:11 AM 71.6 °F 68.0 °F 88% 30.14 in 6.0 mi Calm Calm - N/A   Overcast
9:54 AM 71.1 °F 68.0 °F 90% 30.06 in 6.0 mi South 4.6 mph - N/A   Overcast
10:54 AM 72.0 °F 68.0 °F 87% 30.06 in 5.0 mi SSE 5.8 mph - N/A   Overcast
11:24 AM 71.6 °F 66.2 °F 83% 30.14 in 10.0 mi Variable 4.6 mph - N/A   Overcast
11:54 AM 71.1 °F 68.0 °F 90% 30.07 in 5.0 mi South 4.6 mph - 0.01 in   Overcast
12:47 PM 71.6 °F 68.0 °F 88% 30.13 in 10.0 mi SSE 5.8 mph - N/A   Overcast
12:54 PM 73.0 °F 68.0 °F 84% 30.05 in 4.0 mi SSE 4.6 mph - N/A   Overcast
1:27 PM 75.2 °F 68.0 °F 78% 30.12 in 10.0 mi SSE 8.1 mph - N/A   Mostly Cloudy
1:42 PM 75.2 °F 68.0 °F 78% 30.11 in 10.0 mi SSE 5.8 mph - N/A   Scattered Clouds
1:54 PM 75.9 °F 68.0 °F 76% 30.03 in 10.0 mi Variable 4.6 mph - N/A   Mostly Cloudy
2:54 PM 78.1 °F 68.0 °F 71% 30.00 in 10.0 mi SSE 8.1 mph - N/A   Mostly Cloudy
3:54 PM 79.0 °F 68.0 °F 69% 29.98 in 10.0 mi SSE 5.8 mph - N/A   Scattered Clouds
4:54 PM 78.1 °F 68.0 °F 71% 29.96 in 10.0 mi Variable 3.5 mph - N/A   Mostly Cloudy
5:54 PM 79.0 °F 69.1 °F 72% 29.95 in 10.0 mi SSE 6.9 mph - N/A   Scattered Clouds
6:54 PM 77.0 °F 68.0 °F 74% 29.96 in 10.0 mi SSE 3.5 mph - N/A   Mostly Cloudy
7:54 PM 75.0 °F 69.1 °F 82% 29.97 in 10.0 mi SSE 4.6 mph - N/A   Mostly Cloudy
8:54 PM 73.0 °F 69.1 °F 87% 29.97 in 10.0 mi SE 5.8 mph - N/A   Mostly Cloudy
9:39 PM 73.4 °F 69.8 °F 88% 30.06 in 10.0 mi Calm Calm - N/A   Overcast
9:47 PM 73.4 °F 69.8 °F 88% 30.05 in 10.0 mi SSE 4.6 mph - N/A   Overcast
9:54 PM 72.0 °F 69.1 °F 91% 29.98 in 10.0 mi SSE 4.6 mph - N/A   Mostly Cloudy
10:54 PM 71.1 °F 69.1 °F 93% 29.99 in 10.0 mi SE 3.5 mph - N/A   Mostly Cloudy
11:02 PM 71.6 °F 69.8 °F 94% 30.06 in 10.0 mi SE 4.6 mph - N/A   Mostly Cloudy
11:54 PM 71.1 °F 69.1 °F 93% 29.99 in 8.0 mi South 3.5 mph - N/A   Overcast